Current weather by "City, St" or "zip code"  
 

Current Conditions: OWOSSO

NULL


50.9 F

Last Updated on May 26 2024, 04:55 AM EDT
Humidity: 89%
Wind Speed: 0.0 mph
Barometer 29.90 in
Dewpoint: 47.7 F
Visibility: 10.00 mi
Precip: --
Heat Index: NA
Wind Chill: NA
Current conditions at:

OWOSSO (KRNP)

Lat: 42.99 Lon: 84.14

active severe weather and emergency alerts image image weather storm and storm spotter reports image weather observation monitoring service image
Active
Alerts
Storm Reports Obs
Monitoring

Sign-up For Email & Text Message Weather Alert Notification Services



Advertise Here

Observation History for OWOSSO


Time Wind
(mph)
Vis
(mi)
Weather Precip (in) Temperature (F) Relative
Humidity
Wind
Chill
(F)
Heat
Index
(F)
Pressure
Air Dwpt altimeter
(in)
sea level
(mb)
Rmks
04:55 AM EDT 0.0 10.00 NULL -- 50.9 47.7 89% NA NA 29.90 1012.5
04:35 AM EDT 0.0 10.00 Clear -- 51.8 48.2 87% NA NA 29.89 1012.2
03:55 AM EDT 0.0 10.00 Clear -- 52.3 48.4 86% NA NA 29.91 1012.9
02:55 AM EDT 0.0 10.00 Clear -- 53.2 49.1 86% NA NA 29.91 1012.9
02:35 AM EDT 0.0 10.00 Clear -- 53.2 48.9 85% NA NA 29.91 1012.9
01:55 AM EDT 0.0 10.00 Clear -- 53.8 48.7 83% NA NA 29.92 1013.2
01:35 AM EDT 0.0 10.00 Clear -- 53.8 48.6 82% NA NA 29.92 1013.2
12:55 AM EDT 0.0 10.00 Clear -- 54.3 48.6 81% NA NA 29.91 1012.9
12:35 AM EDT 0.0 10.00 Clear -- 55.4 49.6 81% NA NA 29.91 1012.9
12:15 AM EDT 0.0 10.00 Clear -- 55.4 49.1 79% NA NA 29.92 1013.2
11:55 PM EDT 0.0 10.00 Clear -- 56.5 49.6 78% NA NA 29.91 1012.9
10:55 PM EDT 0.0 10.00 Clear -- 58.6 47.5 66% NA NA 29.91 1012.9
10:35 PM EDT 0.0 10.00 Clear -- 59.4 47.5 65% NA NA 29.90 1012.5
10:15 PM EDT 0.0 10.00 Clear -- 60.1 47.5 63% NA NA 29.89 1012.2
09:55 PM EDT 0.0 10.00 Clear -- 62.1 48.0 60% NA NA 29.89 1012.2
09:35 PM EDT 0.0 10.00 Clear -- 64.2 48.7 57% NA NA 29.88 1011.9
09:15 PM EDT 0.0 10.00 Clear -- 65.8 47.8 52% NA NA 29.87 1011.5
08:55 PM EDT 0.0 10.00 Clear -- 70.7 39.7 32% NA 69.1 29.87 1011.5
07:55 PM EDT 6.9 10.00 Clear -- 74.1 % NA NA 29.85 1010.8
07:15 PM EDT 8.1 10.00 Clear -- 75.4 40.3 28% NA 73.9 29.84 1010.5
06:55 PM EDT W 9.2 10.00 Clear -- 75.6 41.0 29% NA 74.1 29.84 1010.5
06:35 PM EDT W 10.3 10.00 Clear -- 76.1 % NA NA 29.84 1010.5
05:55 PM EDT W 9.2 10.00 Clear -- 76.3 42.1 29% NA 75.0 29.83 1010.2
05:35 PM EDT NW 9.2 10.00 Clear -- 76.3 % NA NA 29.84 1010.5

Regional Weather Observation


ALMA (KAMN)

NULL
47.8 F

SAGINAW (KMBS)

NULL
55.9 F

MIDLAND BARSTOW (KIKW)

Fog/Mist
52.5 F

MOUNT PLEASANT (KMOP)

Fog/Mist
48.2 F

SAGINAW/BROWNE (KHYX)

NULL
53.6 F

LANSING (KLAN)

NULL
51.1 F

Advertise Here


Advertise Here